FLOCK 3M-3 (42996 NORAD) Tracking and Keplerian Element Data

This shows tracking and keplerian element data for the satellite.

Feedback or suggestion? Click here.




ElementValue
Catalog42996
NameFLOCK 3M-3
Epoch Orbit1611
Epoch Day46.12029492
Epoch Year2018
RAAN162.1672
Inclination97.3405
Eccentricity0.0016382
Argument of Perigee210.7774
Mean Anonmoly149.2501
Mean Motion15.18418436
Decay Rate4.581E-05
L11 42996U 17068K 18046.12029492 .00004581 00000-0 22512-3 0 9993
L22 42996 97.3405 162.1672 0016382 210.7774 149.2501 15.18418436 16115

Live tracking and technical data element details for FLOCK 3M-3 (NORAD 42996). FLOCK 3M-3 can be tracked NOW for your location showing map with azimuth and elevation plus other details from your city location.

Track the satellite on the map from your city or location and see movement details for azimuth, elevation, latitude, longitude, range, height, and movement on the map or in text.







IsCatalogInMostPopularTable: catalog: 42996, numindb: 159
Update: records affected: 1



GetName: 42996 FLOCK 3M-3

Hit Count: updated at: Sun, 16 Dec 2018 10:21:18 GMT